Home > Weather > Thiès > Past weeks

Flag for Senegal Past Weather in Thiès, Senegal — Yesterday and Last 2 Weeks

Now
81 °F

Partly sunny.


Feels Like: 85 °F
Forecast: N/A
Wind: 7 mph from Northwest

Location: Dakar / Yoff

Current Time: Jul 24, 2016 at 4:40:35 PM

Latest Report: Jul 24, 2016 at 4:00 PM


Visibility: N/A

Pressure: 29.89 "Hg

Humidity: 79%

Dew Point: 73 °F

Location of ThièsLocation

Past Weather in Thiès — Graph

°F

Thiès Temperature Yesterday

Maximum temperature yesterday: 88 °F (at 4:30 PM)
Minimum temperature yesterday: 77 °F (at 7:00 AM)
Average temperature yesterday: 82 °F

High & Low Weather Summary for the Past Weeks

 TemperatureHumidityPressure
High97 °F (Jul 19, 7:30 AM)94% (Jul 21, 3:30 PM)32.52 "Hg (Jul 21, 3:30 PM)
Low73 °F (Jul 24, 4:00 AM)44% (Jul 19, 7:30 AM)29.80 "Hg (Jul 14, 3:00 PM)
Average80 °F78%29.91 "Hg
* Reported Jul 9 3:00 PM — Jul 24 3:30 PM, Thiès, Weather by CustomWeather, © 2016

Note: Actual official high and low records may vary slightly from our data, if they occured in-between our weather recording intervals... More about our weather records

Advertising

Thiès Weather History for the Previous 24 Hours

Scroll right to see more
 ConditionsComfort  
Time TempWeatherWind HumidityBarometerVisibility
3:30 PM
Sun, Jul 24
82 °FPartly sunny.9 mph79%29.89 "HgN/A
3:00 PM82 °FPartly sunny.9 mph79%29.89 "HgN/A
2:30 PM82 °FPartly sunny.9 mph79%29.89 "HgN/A
2:00 PM82 °FPartly sunny.10 mph79%29.89 "HgN/A
1:30 PM82 °FPartly sunny.8 mph79%29.89 "HgN/A
1:00 PM81 °FPartly sunny.7 mph84%29.92 "HgN/A
12:30 PM81 °FPartly sunny.5 mph84%29.92 "HgN/A
12:00 PM81 °FLight rain. Partly sunny.9 mph84%29.95 "Hg5 mi
11:30 AM82 °FPartly sunny.9 mph79%29.95 "HgN/A
11:00 AM81 °FPartly sunny.9 mph84%29.92 "HgN/A
10:30 AM82 °FPartly sunny.9 mph79%29.92 "HgN/A
10:00 AM81 °FPartly sunny.9 mph84%29.92 "HgN/A
9:30 AM81 °FPartly sunny.9 mph84%29.92 "HgN/A
9:00 AM81 °FPartly sunny.10 mph84%29.89 "HgN/A
8:30 AM79 °FPartly sunny.7 mph89%29.89 "HgN/A
8:00 AM81 °FPartly sunny.7 mph84%29.89 "HgN/A
7:30 AM81 °FPartly sunny.6 mph84%29.89 "HgN/A
7:00 AM79 °FPartly sunny.8 mph89%29.86 "HgN/A
6:30 AM79 °FPassing clouds.8 mph89%29.89 "HgN/A
6:00 AM81 °FPassing clouds.8 mph84%29.89 "HgN/A
5:30 AM81 °FPassing clouds.7 mph84%29.86 "HgN/A
4:00 AM73 °FPassing clouds.N/A94%N/AN/A
3:30 AM79 °FPassing clouds.7 mph84%29.86 "HgN/A
3:00 AM81 °FPassing clouds.8 mph79%29.86 "HgN/A
2:30 AM81 °FPassing clouds.9 mph84%29.89 "HgN/A
2:00 AM81 °FPassing clouds.6 mph79%29.89 "HgN/A
1:30 AM81 °FPassing clouds.6 mph79%29.92 "HgN/A
1:00 AM81 °FPassing clouds.8 mph79%29.92 "HgN/A
12:30 AM81 °FPassing clouds.6 mph79%29.92 "HgN/A
12:10 AM81 °FPassing clouds.6 mph79%29.92 "HgN/A
11:30 PM
Sat, Jul 23
81 °FPassing clouds.7 mph79%29.92 "HgN/A
11:00 PM81 °FPassing clouds.7 mph84%29.92 "HgN/A
10:30 PM81 °FPassing clouds.8 mph84%29.92 "HgN/A
10:00 PM81 °FPassing clouds.8 mph84%29.92 "HgN/A
9:30 PM81 °FPassing clouds.7 mph84%29.89 "HgN/A
9:00 PM81 °FPassing clouds.9 mph84%29.89 "HgN/A
8:30 PM82 °FPassing clouds.9 mph79%29.89 "HgN/A
8:00 PM82 °FPassing clouds.8 mph79%29.89 "HgN/A
7:30 PM82 °FScattered clouds.8 mph74%29.86 "HgN/A
7:00 PM82 °FScattered clouds.8 mph79%29.86 "HgN/A
6:30 PM84 °FScattered clouds.8 mph74%29.86 "HgN/A
6:00 PM84 °FScattered clouds.8 mph74%29.86 "HgN/A
5:30 PM86 °FScattered clouds.8 mph70%29.86 "HgN/A
5:00 PM88 °FScattered clouds.7 mph62%29.86 "HgN/A
4:30 PM88 °FScattered clouds.7 mph66%29.89 "HgN/A
4:00 PM86 °FScattered clouds.8 mph70%29.89 "HgN/A
Weather by CustomWeather, © 2016

See weather overviewHow to use our weather pages